Terminal Aerodrome Forecast
Issued by NWS Charleston, WV

Current Version | Previous Version | Graphics & Text | Print | Product List | Glossary On
Versions: 1 2 3 4 5 6 7 8 9 10 11 12 13 14 15 16 17 18 19 20 21 22 23 24 25 26 27 28 29 30 31 32 33 34
000
FTUS41 KRLX 272300 RRA
TAFCRW
TAF
KCRW 272341Z 2800/2824 24010G16KT P6SM SCT035 BKN110
     FM280300 27007KT P6SM VCTS BKN060CB
     FM280500 26006KT P6SM BKN035
     FM280900 26006KT P6SM BKN025
     FM281700 29008KT P6SM BKN035=

USA.gov is the U.S. government's official web portal to all federal, state and local government web resources and services.